Bewolking Meer informatie Parkstad Weather Satellite


Neerslagradar Meer informatie Parkstad Rain Snow Radar


Onweersbuien Meer informatie Parkstad Lighntning


24/7 Weercamera Meer informatie Parkstad Weathercam


Natuurbrandrisico
CBI






Het weer levert geen direct gevaar op in Parkstad.    Er zijn geen waarschuwingen afgegeven voor Parkstad (045)

Select another period ( hide this area )

Eenheden Periode Custom range Directly to
Metrisch Engels Beide
Dagelijkse Wekelijkse Maandelijkse Jaarlijkse
use both date-selectors for a custom range
previous Dag
With this date
Dagelijkse Samenvatting Vrijdag 22 oktober 2021
Tijd Temp. ( °C ) Dew pt. ( °C ) Wind ( km/h ) van Windvlaag ( km/h ) Luchtdruk ( hPa ) Humid.( % ) Rainrate ( cm ) Zonneschijn ( W/m2 )
Hoog6,4 5,4 31,0 WZW ( 1214/1580 ) 31,0 1016,6 93 - 0
Gemiddeld5,6 4,0 16,1 WZW #74/98 19,1 1016,1 90 - NAN #0/98
Laag5,1 2,5 5,0   10,0 1015,2 83 -  
Dagelijkse Tabular details for Vrijdag 22 oktober 2021
Tijd Temp. ( °C ) Dew pt. ( °C ) Wind ( km/h ) van Windvlaag ( km/h ) Luchtdruk ( hPa ) Humid.( % ) Rainrate ( cm ) Zonneschijn ( W/m2 )
00:04 6,3 5,3 5,0 WZW 11,0 1015,2 93 - -
00:09 6,4 5,4 6,0 WZW 10,0 1015,2 93 - -
00:14 6,4 5,4 6,0 WZW 10,0 1015,2 93 - -
00:19 6,4 5,4 8,0 WZW 11,0 1015,2 93 - -
00:24 6,4 5,4 13,0 WZW 13,0 1015,2 93 - -
00:29 6,4 5,2 10,0 ZW 13,0 1015,2 92 - -
00:34 6,3 5,1 8,0 WZW 13,0 1015,2 92 - -
00:39 6,2 5,0 15,0 WZW 15,0 1015,2 92 - -
00:44 6,2 5,0 14,0 WZW 18,0 1015,2 92 - -
00:49 6,2 5,0 14,0 WZW 15,0 1015,9 92 - -
00:54 6,2 5,0 18,0 WZW 18,0 1015,9 92 - -
00:59 6,2 5,0 14,0 WZW 15,0 1015,9 92 - -
01:04 6,3 5,1 13,0 ZW 15,0 1015,9 92 - -
01:09 6,3 5,1 11,0 WZW 11,0 1015,9 92 - -
01:14 6,3 5,1 13,0 WZW 16,0 1015,9 92 - -
01:19 6,3 5,1 13,0 WZW 13,0 1015,9 92 - -
01:24 6,3 5,1 15,0 ZW 15,0 1015,9 92 - -
01:29 6,3 5,1 14,0 ZW 16,0 1015,9 92 - -
01:34 6,4 5,2 14,0 WZW 15,0 1015,9 92 - -
01:39 6,4 5,2 16,0 WZW 16,0 1015,9 92 - -
01:44 6,4 5,2 13,0 WZW 16,0 1016,3 92 - -
01:49 6,4 5,2 8,0 WZW 16,0 1016,3 92 - -
01:54 6,4 5,2 14,0 WZW 15,0 1016,3 92 - -
01:59 6,3 5,1 11,0 WZW 15,0 1016,3 92 - -
02:04 6,3 5,1 18,0 WZW 18,0 1016,3 92 - -
02:09 6,2 5,0 14,0 WZW 18,0 1016,3 92 - -
02:14 6,2 5,0 11,0 WZW 15,0 1016,3 92 - -
02:19 6,2 5,0 11,0 WZW 18,0 1016,3 92 - -
02:24 6,1 4,9 10,0 WZW 11,0 1016,3 92 - -
02:29 6,0 4,8 13,0 WZW 13,0 1016,3 92 - -
02:34 5,9 4,7 16,0 WZW 16,0 1016,3 92 - -
02:39 5,9 4,7 14,0 WZW 15,0 1016,3 92 - -
02:44 5,8 4,6 16,0 WZW 19,0 1016,3 92 - -
02:49 5,8 4,6 16,0 WZW 16,0 1016,3 92 - -
02:54 5,8 4,6 13,0 WZW 19,0 1016,3 92 - -
02:59 5,8 4,6 14,0 WZW 18,0 1016,3 92 - -
03:04 5,7 4,5 14,0 ZW 16,0 1016,3 92 - -
03:09 5,7 4,5 18,0 ZW 18,0 1016,3 92 - -
03:14 5,7 4,5 13,0 WZW 23,0 1016,3 92 - -
03:19 5,7 4,5 14,0 ZW 15,0 1016,3 92 - -
03:24 5,6 4,4 19,0 WZW 19,0 1016,3 92 - -
03:29 5,6 4,4 14,0 ZW 16,0 1016,3 92 - -
03:34 5,5 4,3 16,0 ZW 18,0 1016,3 92 - -
03:39 5,5 4,3 16,0 ZW 16,0 1016,3 92 - -
03:44 5,5 4,1 14,0 WZW 18,0 1016,3 91 - -
03:49 5,5 4,1 16,0 ZW 19,0 1016,3 91 - -
03:54 5,4 4,0 14,0 ZW 15,0 1016,3 91 - -
03:59 5,4 4,0 13,0 WZW 19,0 1016,3 91 - -
04:04 5,3 4,0 14,0 WZW 15,0 1016,3 91 - -
04:09 5,3 4,0 11,0 ZW 15,0 1016,3 91 - -
04:14 5,3 4,0 14,0 WZW 19,0 1016,3 91 - -
04:19 5,3 4,0 11,0 ZW 18,0 1015,9 91 - -
04:24 5,2 3,9 19,0 WZW 19,0 1015,9 91 - -
04:29 5,2 3,9 14,0 WZW 16,0 1015,9 91 - -
04:34 5,1 3,8 13,0 ZW 13,0 1016,3 91 - -
04:39 5,1 3,8 11,0 ZW 21,0 1016,3 91 - -
04:44 5,1 3,8 14,0 ZW 19,0 1016,3 91 - -
04:49 5,1 3,8 18,0 ZW 21,0 1016,3 91 - -
04:54 5,1 3,8 16,0 ZW 16,0 1016,3 91 - -
04:59 5,1 3,6 18,0 WZW 18,0 1016,3 90 - -
05:04 5,2 3,7 20,0 WZW 19,0 1016,3 90 - -
05:09 5,2 3,7 14,0 WZW 19,0 1016,3 90 - -
05:14 5,2 3,7 18,0 ZW 19,0 1016,3 90 - -
05:19 5,2 3,5 23,0 WZW 23,0 1016,3 89 - -
05:24 5,2 3,5 16,0 WZW 18,0 1016,3 89 - -
05:29 5,2 3,5 20,0 WZW 21,0 1016,3 89 - -
05:34 5,2 3,5 16,0 WZW 21,0 1016,3 89 - -
05:39 5,2 3,4 16,0 WZW 21,0 1016,3 88 - -
05:44 5,2 3,4 20,0 WZW 21,0 1016,3 88 - -
05:49 5,2 3,4 20,0 WZW 27,0 1016,3 88 - -
05:54 5,2 3,4 18,0 WZW 24,0 1016,3 88 - -
05:59 5,2 3,4 24,0 WZW 27,0 1016,3 88 - -
06:04 5,1 3,3 20,0 WZW 21,0 1016,3 88 - -
06:09 5,1 3,3 14,0 WZW 24,0 1015,9 88 - -
06:14 5,1 3,1 23,0 WZW 24,0 1015,9 87 - -
06:19 5,1 3,1 21,0 WZW 24,0 1016,3 87 - -
06:24 5,2 3,2 18,0 WZW 24,0 1016,3 87 - -
06:29 5,2 3,1 21,0 WZW 24,0 1016,3 86 - -
06:34 5,2 3,1 24,0 WZW 26,0 1016,3 86 - -
06:39 5,3 3,0 20,0 ZW 26,0 1016,3 85 - -
06:44 5,3 3,0 21,0 WZW 26,0 1016,3 85 - -
06:49 5,3 3,0 18,0 WZW 26,0 1016,3 85 - -
06:54 5,3 3,0 20,0 ZW 23,0 1016,3 85 - -
06:59 5,3 2,8 21,0 WZW 27,0 1016,3 84 - -
07:04 5,3 2,8 16,0 ZW 23,0 1016,3 84 - -
07:09 5,3 2,8 26,0 WZW 29,0 1016,3 84 - -
07:14 5,2 2,7 31,0 WZW 31,0 1016,3 84 - -
07:19 5,2 2,5 23,0 WZW 31,0 1016,3 83 - -
07:24 5,2 2,5 31,0 WZW 31,0 1016,3 83 - -
07:29 5,2 2,5 24,0 WZW 31,0 1016,3 83 - -
07:34 5,2 2,5 14,0 WZW 26,0 1016,3 83 - -
07:39 5,2 2,5 20,0 WZW 19,0 1016,3 83 - -
07:44 5,2 2,5 26,0 WZW 26,0 1016,3 83 - -
07:49 5,2 2,5 14,0 WZW 21,0 1016,6 83 - -
07:54 5,2 2,5 24,0 ZW 24,0 1016,6 83 - -
07:59 5,2 2,5 18,0 WZW 19,0 1016,6 83 - -
08:04 5,2 2,5 21,0 WZW 21,0 1016,6 83 - -
08:09 5,2 2,5 20,0 WZW 23,0 1016,6 83 - -
Dagelijkse Samenvatting Vrijdag 22 oktober 2021
Tijd Temp. ( °C ) Dew pt. ( °C ) Wind ( km/h ) van Windvlaag ( km/h ) Luchtdruk ( hPa ) Humid.( % ) Rainrate ( cm ) Zonneschijn ( W/m2 )
Hoog6,4 5,4 31,0 WZW ( 1214/1580 ) 31,0 1016,6 93 - 0
Gemiddeld5,6 4,0 16,1 WZW #74/98 19,1 1016,1 90 - NAN #0/98
Laag5,1 2,5 5,0   10,0 1015,2 83 -  
Dagelijkse Tabular details for Vrijdag 22 oktober 2021
Tijd Temp. ( °C ) Dew pt. ( °C ) Wind ( km/h ) van Windvlaag ( km/h ) Luchtdruk ( hPa ) Humid.( % ) Rainrate ( cm ) Zonneschijn ( W/m2 )
00:04 6,3 5,3 5,0 WZW 11,0 1015,2 93 - -
00:09 6,4 5,4 6,0 WZW 10,0 1015,2 93 - -
00:14 6,4 5,4 6,0 WZW 10,0 1015,2 93 - -
00:19 6,4 5,4 8,0 WZW 11,0 1015,2 93 - -
00:24 6,4 5,4 13,0 WZW 13,0 1015,2 93 - -
00:29 6,4 5,2 10,0 ZW 13,0 1015,2 92 - -
00:34 6,3 5,1 8,0 WZW 13,0 1015,2 92 - -
00:39 6,2 5,0 15,0 WZW 15,0 1015,2 92 - -
00:44 6,2 5,0 14,0 WZW 18,0 1015,2 92 - -
00:49 6,2 5,0 14,0 WZW 15,0 1015,9 92 - -
00:54 6,2 5,0 18,0 WZW 18,0 1015,9 92 - -
00:59 6,2 5,0 14,0 WZW 15,0 1015,9 92 - -
01:04 6,3 5,1 13,0 ZW 15,0 1015,9 92 - -
01:09 6,3 5,1 11,0 WZW 11,0 1015,9 92 - -
01:14 6,3 5,1 13,0 WZW 16,0 1015,9 92 - -
01:19 6,3 5,1 13,0 WZW 13,0 1015,9 92 - -
01:24 6,3 5,1 15,0 ZW 15,0 1015,9 92 - -
01:29 6,3 5,1 14,0 ZW 16,0 1015,9 92 - -
01:34 6,4 5,2 14,0 WZW 15,0 1015,9 92 - -
01:39 6,4 5,2 16,0 WZW 16,0 1015,9 92 - -
01:44 6,4 5,2 13,0 WZW 16,0 1016,3 92 - -
01:49 6,4 5,2 8,0 WZW 16,0 1016,3 92 - -
01:54 6,4 5,2 14,0 WZW 15,0 1016,3 92 - -
01:59 6,3 5,1 11,0 WZW 15,0 1016,3 92 - -
02:04 6,3 5,1 18,0 WZW 18,0 1016,3 92 - -
02:09 6,2 5,0 14,0 WZW 18,0 1016,3 92 - -
02:14 6,2 5,0 11,0 WZW 15,0 1016,3 92 - -
02:19 6,2 5,0 11,0 WZW 18,0 1016,3 92 - -
02:24 6,1 4,9 10,0 WZW 11,0 1016,3 92 - -
02:29 6,0 4,8 13,0 WZW 13,0 1016,3 92 - -
02:34 5,9 4,7 16,0 WZW 16,0 1016,3 92 - -
02:39 5,9 4,7 14,0 WZW 15,0 1016,3 92 - -
02:44 5,8 4,6 16,0 WZW 19,0 1016,3 92 - -
02:49 5,8 4,6 16,0 WZW 16,0 1016,3 92 - -
02:54 5,8 4,6 13,0 WZW 19,0 1016,3 92 - -
02:59 5,8 4,6 14,0 WZW 18,0 1016,3 92 - -
03:04 5,7 4,5 14,0 ZW 16,0 1016,3 92 - -
03:09 5,7 4,5 18,0 ZW 18,0 1016,3 92 - -
03:14 5,7 4,5 13,0 WZW 23,0 1016,3 92 - -
03:19 5,7 4,5 14,0 ZW 15,0 1016,3 92 - -
03:24 5,6 4,4 19,0 WZW 19,0 1016,3 92 - -
03:29 5,6 4,4 14,0 ZW 16,0 1016,3 92 - -
03:34 5,5 4,3 16,0 ZW 18,0 1016,3 92 - -
03:39 5,5 4,3 16,0 ZW 16,0 1016,3 92 - -
03:44 5,5 4,1 14,0 WZW 18,0 1016,3 91 - -
03:49 5,5 4,1 16,0 ZW 19,0 1016,3 91 - -
03:54 5,4 4,0 14,0 ZW 15,0 1016,3 91 - -
03:59 5,4 4,0 13,0 WZW 19,0 1016,3 91 - -
04:04 5,3 4,0 14,0 WZW 15,0 1016,3 91 - -
04:09 5,3 4,0 11,0 ZW 15,0 1016,3 91 - -
04:14 5,3 4,0 14,0 WZW 19,0 1016,3 91 - -
04:19 5,3 4,0 11,0 ZW 18,0 1015,9 91 - -
04:24 5,2 3,9 19,0 WZW 19,0 1015,9 91 - -
04:29 5,2 3,9 14,0 WZW 16,0 1015,9 91 - -
04:34 5,1 3,8 13,0 ZW 13,0 1016,3 91 - -
04:39 5,1 3,8 11,0 ZW 21,0 1016,3 91 - -
04:44 5,1 3,8 14,0 ZW 19,0 1016,3 91 - -
04:49 5,1 3,8 18,0 ZW 21,0 1016,3 91 - -
04:54 5,1 3,8 16,0 ZW 16,0 1016,3 91 - -
04:59 5,1 3,6 18,0 WZW 18,0 1016,3 90 - -
05:04 5,2 3,7 20,0 WZW 19,0 1016,3 90 - -
05:09 5,2 3,7 14,0 WZW 19,0 1016,3 90 - -
05:14 5,2 3,7 18,0 ZW 19,0 1016,3 90 - -
05:19 5,2 3,5 23,0 WZW 23,0 1016,3 89 - -
05:24 5,2 3,5 16,0 WZW 18,0 1016,3 89 - -
05:29 5,2 3,5 20,0 WZW 21,0 1016,3 89 - -
05:34 5,2 3,5 16,0 WZW 21,0 1016,3 89 - -
05:39 5,2 3,4 16,0 WZW 21,0 1016,3 88 - -
05:44 5,2 3,4 20,0 WZW 21,0 1016,3 88 - -
05:49 5,2 3,4 20,0 WZW 27,0 1016,3 88 - -
05:54 5,2 3,4 18,0 WZW 24,0 1016,3 88 - -
05:59 5,2 3,4 24,0 WZW 27,0 1016,3 88 - -
06:04 5,1 3,3 20,0 WZW 21,0 1016,3 88 - -
06:09 5,1 3,3 14,0 WZW 24,0 1015,9 88 - -
06:14 5,1 3,1 23,0 WZW 24,0 1015,9 87 - -
06:19 5,1 3,1 21,0 WZW 24,0 1016,3 87 - -
06:24 5,2 3,2 18,0 WZW 24,0 1016,3 87 - -
06:29 5,2 3,1 21,0 WZW 24,0 1016,3 86 - -
06:34 5,2 3,1 24,0 WZW 26,0 1016,3 86 - -
06:39 5,3 3,0 20,0 ZW 26,0 1016,3 85 - -
06:44 5,3 3,0 21,0 WZW 26,0 1016,3 85 - -
06:49 5,3 3,0 18,0 WZW 26,0 1016,3 85 - -
06:54 5,3 3,0 20,0 ZW 23,0 1016,3 85 - -
06:59 5,3 2,8 21,0 WZW 27,0 1016,3 84 - -
07:04 5,3 2,8 16,0 ZW 23,0 1016,3 84 - -
07:09 5,3 2,8 26,0 WZW 29,0 1016,3 84 - -
07:14 5,2 2,7 31,0 WZW 31,0 1016,3 84 - -
07:19 5,2 2,5 23,0 WZW 31,0 1016,3 83 - -
07:24 5,2 2,5 31,0 WZW 31,0 1016,3 83 - -
07:29 5,2 2,5 24,0 WZW 31,0 1016,3 83 - -
07:34 5,2 2,5 14,0 WZW 26,0 1016,3 83 - -
07:39 5,2 2,5 20,0 WZW 19,0 1016,3 83 - -
07:44 5,2 2,5 26,0 WZW 26,0 1016,3 83 - -
07:49 5,2 2,5 14,0 WZW 21,0 1016,6 83 - -
07:54 5,2 2,5 24,0 ZW 24,0 1016,6 83 - -
07:59 5,2 2,5 18,0 WZW 19,0 1016,6 83 - -
08:04 5,2 2,5 21,0 WZW 21,0 1016,6 83 - -
08:09 5,2 2,5 20,0 WZW 23,0 1016,6 83 - -

Download your copy of this data-set  here

U vindt ons ook hier:

Het Weer Aktueel

WOW Nederland KNMI

Vereniging voor Weerkunde en Klimatologie

UK Met Office Weather Observation Website (WOW)

WeatherCloud

Weather Underground

Awekas

MeteoMap.Cloud

HAMweather, WeatherForYou, PWS Weather

Citizen Weather Observer Program (CWOP)

Apparatuur in gebruik:

Hardwareleverancier
Weerhuisje

Weerstation
Vantage Pro2+ UV

Weercomputer's
alix3d2 & wl330n

Weerprogramma's
Smartbedded

Satelliet NOAA's
WRX137 & KX137

Satelliet Eumetsat
Ayecka SR1 & Triax

Bliksemdetectie
Boltek StormTracker

Webleverancier
F-Service

Weerhuisje

Vantage Pro2+ UV

alix3d2 & wl330n

Smartbedded

WRX137 & KX137

Ayecka SR1 & Triax

Boltek StormTracker

F-Service